TimeCST,TemperatureF,Dew PointF,Humidity,Sea Level PressureIn,VisibilityMPH,Wind Direction,Wind SpeedMPH,Gust SpeedMPH,PrecipitationIn,Events,Conditions,WindDirDegrees,DateUTC
12:52 AM,36.0,34.0,93,30.24,6.0,Calm,Calm,-,N/A,,Clear,0,2012-11-21 06:52:00
1:10 AM,33.8,32.0,93,30.23,10.0,Calm,Calm,-,N/A,,Scattered Clouds,0,2012-11-21 07:10:00
1:18 AM,33.8,33.8,100,30.23,10.0,Calm,Calm,-,N/A,,Mostly Cloudy,0,2012-11-21 07:18:00
1:28 AM,35.6,33.8,93,30.23,10.0,Calm,Calm,-,N/A,,Scattered Clouds,0,2012-11-21 07:28:00
1:52 AM,35.1,33.1,92,30.24,10.0,Calm,Calm,-,N/A,,Clear,0,2012-11-21 07:52:00
1:56 AM,35.6,33.8,93,30.23,1.8,SE,3.5,-,N/A,,Clear,140,2012-11-21 07:56:00
2:07 AM,35.6,33.8,93,30.24,10.0,Calm,Calm,-,N/A,,Clear,0,2012-11-21 08:07:00
2:17 AM,35.6,33.8,93,30.24,10.0,SSE,3.5,-,N/A,,Partly Cloudy,150,2012-11-21 08:17:00
2:52 AM,36.0,34.0,93,30.24,10.0,SSE,3.5,-,N/A,,Clear,160,2012-11-21 08:52:00
2:59 AM,35.6,33.8,93,30.23,1.0,SE,5.8,-,N/A,,Clear,140,2012-11-21 08:59:00
3:14 AM,35.6,35.6,100,30.23,10.0,SSE,3.5,-,N/A,,Clear,150,2012-11-21 09:14:00
3:52 AM,35.1,34.0,96,30.24,10.0,Calm,Calm,-,N/A,,Clear,0,2012-11-21 09:52:00
3:57 AM,35.6,33.8,93,30.23,2.5,South,3.5,-,N/A,,Partly Cloudy,190,2012-11-21 09:57:00
4:08 AM,35.6,35.6,100,30.23,10.0,South,3.5,-,N/A,Fog,Shallow Fog,170,2012-11-21 10:08:00
4:52 AM,34.0,34.0,100,30.25,10.0,South,4.6,-,N/A,Fog,Shallow Fog,180,2012-11-21 10:52:00
4:59 AM,35.6,33.8,93,30.24,1.8,South,3.5,-,N/A,Fog,Shallow Fog,170,2012-11-21 10:59:00
5:03 AM,35.6,35.6,100,30.25,10.0,South,3.5,-,N/A,Fog,Shallow Fog,190,2012-11-21 11:03:00
5:11 AM,37.4,37.4,100,30.24,10.0,South,5.8,-,N/A,Fog,Shallow Fog,170,2012-11-21 11:11:00
5:17 AM,35.6,35.6,100,30.25,5.0,SSE,5.8,-,N/A,Fog,Shallow Fog,160,2012-11-21 11:17:00
5:26 AM,35.6,35.6,100,30.24,3.0,SSE,5.8,-,N/A,Fog,Shallow Fog,160,2012-11-21 11:26:00
5:29 AM,35.6,35.6,100,30.24,0.5,SSE,5.8,-,N/A,Fog,Fog,160,2012-11-21 11:29:00
5:49 AM,35.6,35.6,100,30.24,0.5,SSE,5.8,-,N/A,Fog,Fog,150,2012-11-21 11:49:00
5:52 AM,35.1,35.1,100,30.26,0.5,SSE,6.9,-,N/A,Fog,Fog,150,2012-11-21 11:52:00
5:59 AM,35.6,35.6,100,30.24,0.2,SSE,6.9,-,N/A,Fog,Fog,150,2012-11-21 11:59:00
6:08 AM,35.6,35.6,100,30.24,1.0,SSE,5.8,-,N/A,Fog,Fog,160,2012-11-21 12:08:00
6:15 AM,35.6,35.6,100,30.24,1.8,SSE,4.6,-,N/A,Fog,Fog,160,2012-11-21 12:15:00
6:29 AM,35.6,35.6,100,30.24,2.0,SSE,5.8,-,N/A,Fog,Fog,160,2012-11-21 12:29:00
6:41 AM,35.6,35.6,100,30.25,1.8,SSE,6.9,-,N/A,Fog,Fog,160,2012-11-21 12:41:00
6:49 AM,35.6,35.6,100,30.25,2.0,SSE,6.9,-,N/A,Fog,Fog,160,2012-11-21 12:49:00
6:52 AM,35.1,35.1,100,30.26,1.8,SSE,5.8,-,N/A,Fog,Fog,160,2012-11-21 12:52:00
7:52 AM,39.0,37.9,96,30.27,2.0,SSE,4.6,-,N/A,Fog,Fog,160,2012-11-21 13:52:00
8:13 AM,42.8,42.8,100,30.26,3.0,SSE,5.8,-,N/A,Fog,Fog,160,2012-11-21 14:13:00
8:52 AM,46.0,44.1,93,30.28,4.0,South,6.9,-,N/A,Fog,Fog,180,2012-11-21 14:52:00
9:52 AM,52.0,45.0,77,30.29,8.0,South,10.4,-,N/A,Fog,Fog,180,2012-11-21 15:52:00
10:52 AM,57.9,46.9,67,30.28,10.0,South,11.5,-,N/A,,Clear,190,2012-11-21 16:52:00
11:52 AM,62.1,46.0,56,30.24,10.0,SSE,8.1,-,N/A,,Clear,160,2012-11-21 17:52:00
12:52 PM,64.9,42.1,43,30.22,10.0,South,9.2,-,N/A,,Clear,190,2012-11-21 18:52:00
1:52 PM,66.0,39.0,37,30.19,10.0,South,8.1,-,N/A,,Clear,190,2012-11-21 19:52:00
2:52 PM,66.9,37.0,33,30.17,10.0,SSE,10.4,-,N/A,,Clear,160,2012-11-21 20:52:00
3:52 PM,64.0,37.0,37,30.16,10.0,SSE,9.2,-,N/A,,Clear,150,2012-11-21 21:52:00
4:52 PM,57.0,36.0,45,30.16,10.0,SSE,8.1,-,N/A,,Clear,150,2012-11-21 22:52:00
5:52 PM,54.0,34.0,47,30.17,10.0,SSE,9.2,-,N/A,,Clear,150,2012-11-21 23:52:00
6:52 PM,52.0,35.1,53,30.14,10.0,SE,11.5,-,N/A,,Clear,140,2012-11-22 00:52:00
7:52 PM,50.0,35.1,57,30.15,10.0,SSE,10.4,-,N/A,,Clear,150,2012-11-22 01:52:00
8:52 PM,48.0,36.0,63,30.14,10.0,SSE,10.4,-,N/A,,Clear,160,2012-11-22 02:52:00
9:52 PM,48.0,37.9,68,30.13,10.0,SSE,10.4,-,N/A,,Clear,150,2012-11-22 03:52:00
10:52 PM,48.9,39.0,69,30.10,10.0,SSE,13.8,-,N/A,,Clear,150,2012-11-22 04:52:00
11:52 PM,50.0,39.0,66,30.10,10.0,SSE,13.8,-,N/A,,Clear,160,2012-11-22 05:52:00